This is the latest recevied weather packets stored in our database for station/object KC8YYF. If no packets are shown the sender has not sent any weather packets the latest 10 day(s).
| Time | Temp. | Humidity | Pressure | Rain* | Wind** | Luminosity | Snow |
|---|---|---|---|---|---|---|---|
| 1777883906 | 8.89° C | 74% | 1011.8 hPa | 0 mm | - | 0 W/m² | - |
| 1777883603 | 8.89° C | 74% | 1011.5 hPa | 0 mm | - | 0 W/m² | - |
| 1777883299 | 8.89° C | 73% | 1011.9 hPa | 0 mm | - | 0 W/m² | - |
| 1777882995 | 8.89° C | 73% | 1011.9 hPa | 0 mm | - | 0 W/m² | - |
| 1777882692 | 9.44° C | 71% | 1011.8 hPa | 0 mm | - | 0 W/m² | - |
| 1777882389 | 9.44° C | 69% | 1012.1 hPa | 0 mm | - | 0 W/m² | - |
| 1777882085 | 9.44° C | 71% | 1012.2 hPa | 0 mm | - | 0 W/m² | - |
| 1777881781 | 9.44° C | 71% | 1012.3 hPa | 0 mm | - | 0 W/m² | - |
| 1777881479 | 9.44° C | 71% | 1012.2 hPa | 0 mm | - | 0 W/m² | - |
| 1777881176 | 9.44° C | 72% | 1012.4 hPa | 0 mm | - | 0 W/m² | - |
| 1777880873 | 9.44° C | 70% | 1012.1 hPa | 0 mm | - | 0 W/m² | - |
| 1777880571 | 9.44° C | 71% | 1012.3 hPa | 0 mm | - | 0 W/m² | - |
| 1777880269 | 10° C | 71% | 1012.4 hPa | 0 mm | - | 0 W/m² | - |
| 1777879967 | 9.44° C | 70% | 1012.4 hPa | 0 mm | - | 0 W/m² | - |
| 1777879665 | 9.44° C | 71% | 1012.4 hPa | 0 mm | - | 0 W/m² | - |
| 1777879361 | 9.44° C | 71% | 1012.6 hPa | 0 mm | - | 0 W/m² | - |
| 1777879058 | 10° C | 71% | 1012.6 hPa | 0 mm | - | 0 W/m² | - |
| 1777878756 | 10° C | 68% | 1012.6 hPa | 0 mm | - | 0 W/m² | - |
| 1777878454 | 10° C | 67% | 1012.8 hPa | 0 mm | - | 0 W/m² | - |
| 1777878149 | 9.44° C | 72% | 1013 hPa | 0 mm | - | 0 W/m² | - |
| 1777877846 | 9.44° C | 71% | 1012.9 hPa | 0 mm | - | 0 W/m² | - |
| 1777877543 | 9.44° C | 73% | 1012.9 hPa | 0 mm | - | 0 W/m² | - |
| 1777877239 | 9.44° C | 72% | 1013 hPa | 0 mm | - | 0 W/m² | - |
| 1777876937 | 9.44° C | 73% | 1013 hPa | 0 mm | - | 0 W/m² | - |
| 1777876634 | 9.44° C | 75% | 1013.1 hPa | 0 mm | - | 0 W/m² | - |
* Rain latest hour (hover to see other rain measurements)
** Current wind speed in m/s (hover to see current wind gust speed)